Temperature
17 17 17 17 18 18 18 17 17 17 17 17 17 17 17 17 17 18 18 18 18 18 18 18 18 18 18 18 18 18 18 18 18 18 18 18 18 18 18 18 18 17 17
17 17 17 17 18 18 18 18 18 17 17 17 17 17 17 17 17 17 17 17 18 18 18 17 17 18 18 18 17 17 17 17 18 18 18 17 17 18 18 17 17 17 17
18 18 18 17 17 18 18 18 17 17 17 17 17 17 17 17 17 17 17 17 17 17 17 17 17 17 17 17 17 17 17 17 17 17 17 17 17 17 17 17 17 17 17
18 18 18 18 17 17 17 17 17 17 17 17 17 17 17 17 17 17 17 17 17 17 17 17 17 17 17 17 17 17 17 17 17 17 17 17 17 17 17 17 17 17 17
18 18 18 18 17 17 17 17 17 17 17 17 17 17 17 17 17 17 17 17 17 17 17 17 17 17 17 17 17 17 17 17 17 17 17 17 17 17 17 17 17 17 17
18 18 17 17 17 17 17 17 17 17 17 17 17 17 17 17 17 17 17 17 17 17 17 17 17 17 17 17 17 17 17 17 17 17 17 17 17 17 17 17 17 17 17
18 17 17 17 17 17 17 17 17 17 17 17 17 17 17 17 17 17 17 16 16 16 16 16 17 16 16 17 17 17 16 16 17 17 17 17 16 16 16 16 16 16 16
18 17 17 17 17 17 17 17 17 17 17 17 17 17 17 17 17 17 16 16 16 16 16 16 16 16 16 16 16 16 16 16 16 16 16 16 16 16 16 16 16 16 16
17 17 17 17 17 17 17 17 17 17 17 16 16 16 16 16 16 16 16 16 16 16 16 16 16 16 16 16 16 16 16 16 16 16 16 16 16 16 16 16 16 16 16
17 17 17 17 17 17 17 17 17 17 16 16 16 16 16 16 16 16 16 16 16 16 16 16 16 16 16 16 16 16 16 16 16 16 16 16 16 16 16 16 16 16 15
17 17 17 17 17 17 17 17 17 16 16 16 16 16 16 16 16 16 16 16 16 16 16 15 15 15 15 16 16 16 16 16 16 16 16 16 16 15 16 15 15 15 15
17 17 17 17 17 17 17 16 16 16 16 16 16 16 16 16 16 16 16 16 16 15 15 15 15 15 15 16 16 16 16 16 16 15 15 15 15 15 15 15 15 15 15
18 17 17 17 17 17 17 16 16 16 16 16 16 16 16 16 16 15 15 15 15 15 15 15 15 15 15 15 15 15 15 15 15 15 15 15 15 15 15 15 15 15 15
17 17 17 17 17 17 17 16 16 16 16 16 16 16 16 16 15 15 15 15 15 15 15 15 15 15 15 15 15 15 15 15 15 15 15 15 15 15 15 15 15 15 15
18 17 17 17 17 17 17 16 16 16 16 16 16 16 16 15 15 15 15 15 15 15 15 15 15 15 15 15 15 15 15 15 15 15 15 15 15 15 15 15 15 14 14
18 18 17 17 17 17 17 16 16 16 16 16 16 15 15 15 15 15 15 15 15 15 15 15 15 15 15 15 15 15 15 15 15 15 15 15 15 15 14 14 14 14 14
18 18 17 17 17 17 17 16 16 16 16 16 16 15 15 15 15 15 15 15 15 15 15 15 15 15 15 15 15 15 14 14 15 15 15 15 15 14 14 14 14 14 14
18 18 17 17 17 17 16 16 16 16 16 16 16 16 15 15 15 15 15 15 15 15 15 15 15 15 15 15 15 14 14 14 14 14 14 14 14 14 14 14 14 14 14
18 18 17 17 17 17 17 16 16 16 16 16 16 15 15 15 15 15 15 15 15 15 15 15 15 15 15 14 14 14 14 14 14 14 14 14 14 14 14 14 14 14 14
18 18 17 17 17 17 16 16 16 16 16 16 16 15 15 15 15 15 15 15 15 15 15 14 14 14 14 14 14 14 14 14 14 14 14 14 14 14 14 14 14 13 13
18 18 17 17 17 17 16 16 16 16 16 16 15 15 15 15 15 15 15 15 15 15 15 14 14 14 14 14 14 14 14 14 14 14 13 13 13 13 13 13 13 13 13
18 18 17 17 17 17 16 16 16 16 15 15 15 15 15 15 15 15 15 15 15 15 14 14 14 14 14 14 14 14 13 13 13 13 13 13 13 13 13 13 13 13 13
17 17 17 17 17 17 16 16 16 15 15 15 15 15 15 15 15 15 15 15 15 15 14 14 14 14 14 14 14 14 14 13 13 13 13 13 13 13 13 13 13 13 13
17 17 17 17 16 16 16 16 16 16 15 15 15 15 15 15 15 15 15 15 14 14 14 14 14 14 14 14 14 14 14 14 13 13 13 13 13 13 13 13 13 13 13
17 17 17 17 16 16 16 16 16 16 15 15 15 15 15 15 15 15 15 14 14 14 14 14 14 14 14 14 14 14 14 14 13 13 13 13 13 13 13 13 12 12 13
17 17 16 16 16 16 16 16 16 16 15 15 15 15 15 15 15 14 14 14 14 14 14 14 14 14 14 14 14 14 14 14 13 13 13 12 12 12 12 12 12 12 12
Wind_Speed
1 2 6 7 7 7 7 7 8 9 10 11 11 11 12 11 11 11 11 11 11 11 11 11 11 11 11 11 11 12 12 12 12 11 11 10 9 9 9 8 8 7 8
4 4 7 7 8 7 7 9 9 10 10 11 11 11 11 11 11 11 11 11 12 12 11 11 11 11 12 11 12 12 12 12 12 11 10 9 9 9 9 8 8 7 8
6 6 7 7 8 8 9 10 11 11 11 11 11 11 11 11 11 11 11 11 12 12 11 11 11 11 11 12 12 12 12 12 12 12 11 8 8 9 9 9 9 9 8
7 7 7 8 9 9 10 12 12 12 11 11 11 11 11 11 11 11 11 11 12 12 12 11 11 11 11 11 12 12 12 12 12 11 9 8 8 10 10 9 10 10 9
7 7 7 9 9 9 10 11 12 12 11 11 10 10 10 11 12 12 11 11 12 11 11 12 12 12 12 12 13 13 13 13 13 11 10 9 8 10 11 10 10 10 9
6 6 8 9 9 10 10 11 11 11 11 11 11 11 11 12 12 12 11 11 12 12 12 12 12 11 12 12 13 13 14 14 12 10 9 9 8 10 11 11 10 10 9
6 6 8 10 10 10 11 11 11 11 11 11 11 12 13 13 12 12 12 12 12 12 12 12 13 12 12 12 12 13 14 14 11 9 8 8 9 11 11 12 11 11 11
8 7 8 10 10 10 10 10 10 11 11 11 12 13 13 13 12 12 12 11 11 11 11 11 12 12 13 13 13 13 14 13 11 9 8 8 10 12 13 12 12 12 12
8 7 6 7 8 9 9 9 10 10 11 11 11 12 12 12 11 12 11 11 11 11 10 10 11 11 12 13 14 14 14 13 10 8 8 8 12 13 14 13 13 13 13
6 5 5 6 6 6 7 8 9 9 9 10 10 10 10 11 10 10 10 10 10 10 10 10 10 11 12 13 14 14 13 12 10 8 7 9 12 13 14 14 14 14 14
6 5 5 5 5 5 5 6 7 7 7 8 7 8 8 7 7 7 8 9 9 9 9 9 10 11 12 13 14 14 12 9 9 7 7 11 12 13 13 13 14 14 14
6 6 5 5 5 5 5 5 4 4 4 4 4 5 5 5 5 6 6 7 8 8 8 9 10 10 10 9 11 12 9 10 8 7 9 12 12 13 13 13 13 13 14
7 6 6 5 5 5 4 5 3 3 3 4 5 6 6 5 4 5 5 6 7 8 7 8 8 8 8 8 8 8 9 8 7 7 9 11 12 12 13 13 13 13 14
6 6 6 6 5 5 5 4 3 3 2 2 3 6 6 4 3 3 3 4 5 5 6 6 6 8 9 9 9 8 8 7 7 7 8 11 12 12 13 13 13 13 14
6 6 6 6 6 5 4 3 4 3 3 3 3 4 7 4 3 3 3 3 4 5 5 5 6 7 7 7 8 8 6 7 8 8 8 10 11 12 12 13 12 12 13
6 6 6 7 6 6 4 3 3 4 4 4 4 5 6 6 5 4 3 3 3 4 6 6 6 6 5 5 5 6 6 6 7 8 8 9 11 11 12 12 12 12 12
6 6 6 6 6 6 5 4 4 4 4 3 4 6 7 7 7 5 3 3 3 5 6 6 6 6 5 5 5 4 5 5 6 7 7 7 8 9 10 11 11 11 11
5 5 5 5 5 5 5 4 4 4 4 3 4 6 7 8 8 6 4 3 4 6 5 4 4 4 4 4 3 3 3 3 4 5 6 6 6 6 8 9 10 10 9
6 6 5 5 5 5 5 4 4 4 4 3 5 5 6 7 8 7 4 4 5 5 3 4 3 3 3 3 3 3 3 2 2 4 4 4 5 6 6 7 8 8 7
6 6 5 4 4 5 4 3 3 3 2 3 4 4 6 6 7 7 4 5 5 4 3 3 4 3 2 2 3 4 3 2 2 2 2 3 4 4 5 5 5 5 6
5 6 5 5 4 5 3 3 3 2 1 1 2 4 5 6 7 6 4 4 4 3 3 4 3 3 2 2 3 3 4 4 3 2 2 2 2 3 4 4 4 4 4
6 6 5 5 5 5 4 3 3 3 2 1 1 3 4 5 6 6 5 4 4 4 4 3 3 2 1 1 3 3 2 4 3 2 2 1 1 2 3 3 4 4 4
4 5 5 5 5 4 4 3 3 3 2 2 1 1 1 3 4 5 5 4 4 3 3 3 3 4 2 0 1 3 3 2 1 3 2 1 1 1 1 2 3 3 3
3 4 5 5 4 4 4 5 5 4 3 3 2 2 1 2 4 4 5 5 4 3 3 3 3 3 3 1 0 1 2 4 3 0 2 2 1 1 0 1 2 2 3
3 3 4 5 5 4 5 6 6 5 3 2 2 2 2 1 2 3 4 4 3 3 3 2 2 3 3 3 2 1 2 2 2 3 1 2 2 1 0 1 2 2 2
2 2 2 3 3 3 4 5 6 7 5 4 3 3 2 1 1 2 3 3 3 3 3 2 2 3 3 2 2 2 3 2 2 3 2 1 1 2 1 0 1 1 2
Wind_Direction
160 158 123 105 95 93 94 99 99 93 89 86 83 82 80 79 80 79 78 77 76 75 75 75 77 77 77 77 76 78 81 83 84 85 84 85 88 90 91 90 86 85 95
160 148 124 107 100 94 92 99 102 97 91 88 84 83 82 81 80 81 79 78 78 78 77 77 77 78 77 78 78 77 76 76 78 80 80 81 84 87 87 88 89 87 90
138 133 121 110 101 95 94 98 101 99 94 89 85 85 85 84 82 80 80 80 80 79 78 78 78 79 78 77 77 75 74 74 76 76 76 75 79 83 84 87 89 87 86
135 129 121 112 102 98 94 94 97 95 91 89 86 85 87 88 88 85 83 83 81 79 79 80 80 81 78 77 75 73 74 77 77 74 69 68 74 78 79 83 85 84 83
123 125 127 115 104 100 97 94 93 92 89 86 84 86 90 91 89 86 84 83 81 79 78 79 78 78 78 76 74 75 78 80 80 72 66 64 70 77 78 80 83 84 84
117 123 126 117 108 104 100 98 96 94 90 86 82 87 94 94 91 88 85 82 81 79 78 79 77 76 78 78 77 76 79 81 78 69 66 66 72 80 79 80 80 83 83
126 124 124 118 114 108 104 103 100 98 94 90 84 89 95 96 93 88 85 85 83 80 79 81 75 73 75 77 77 78 80 81 75 68 65 65 76 81 82 81 79 79 78
135 129 126 123 117 113 109 108 105 102 101 95 90 89 92 95 95 92 90 89 87 84 81 80 78 77 74 72 73 76 77 78 74 69 64 67 79 82 82 79 78 78 77
130 129 129 129 123 119 115 111 109 107 105 100 97 95 94 95 95 94 93 91 88 86 83 81 78 78 78 75 73 73 71 71 67 66 69 69 80 83 82 80 79 79 77
133 137 138 134 127 123 122 118 115 112 107 103 102 99 97 97 97 95 91 89 86 83 79 79 77 78 79 76 77 77 72 64 61 59 64 76 83 83 81 80 78 78 76
141 151 150 143 140 138 133 126 121 115 112 108 108 106 98 98 99 97 92 87 85 81 75 73 73 76 76 76 77 74 69 64 61 59 67 81 85 86 84 82 82 79 77
156 164 165 159 155 157 147 130 127 118 117 118 121 118 116 110 104 98 88 84 80 76 73 69 67 71 70 72 70 68 68 65 61 63 76 84 84 87 86 84 85 82 80
167 163 168 166 160 158 141 140 139 133 123 116 122 128 127 117 98 86 75 67 64 65 63 62 62 67 73 76 74 70 66 66 62 62 77 83 82 86 87 86 85 84 82
157 163 167 165 154 155 147 146 145 140 134 119 125 126 122 113 101 95 86 79 69 66 68 65 68 72 76 76 79 76 68 68 64 61 74 80 81 82 86 86 84 84 82
159 161 161 159 159 148 137 151 147 148 145 144 140 136 134 128 121 107 98 89 84 79 80 75 73 76 76 78 81 80 74 72 68 65 68 76 78 79 82 84 83 83 83
171 169 160 159 162 150 147 150 146 148 144 137 135 138 138 134 130 118 103 92 86 88 90 90 88 86 79 82 78 77 77 77 74 69 64 67 72 76 77 79 82 85 85
176 168 160 159 155 151 149 147 146 146 137 129 130 132 136 133 130 123 109 96 95 97 95 92 83 78 77 78 72 69 74 76 79 70 66 63 67 74 78 81 82 85 86
170 161 159 155 153 158 153 143 136 134 125 121 124 126 130 130 127 119 111 107 104 98 96 93 86 83 73 73 72 57 61 71 77 77 73 68 66 71 77 82 82 83 86
164 159 152 147 157 152 139 130 117 113 111 114 119 124 129 127 125 120 115 115 109 95 89 100 87 98 94 85 85 67 52 57 64 79 74 74 74 78 79 81 81 78 83
154 154 151 154 142 134 123 109 95 88 85 98 111 126 131 127 126 122 119 118 113 98 89 93 95 80 99 110 87 66 44 39 45 55 69 77 83 88 86 81 74 69 74
143 148 155 155 148 138 133 130 125 127 110 82 103 128 133 132 132 129 128 121 117 115 122 117 107 89 72 95 81 48 23 27 33 32 37 67 77 89 93 91 82 71 65
164 160 163 164 157 153 161 158 149 143 135 145 101 105 126 133 136 139 138 137 132 125 119 120 120 113 89 99 118 97 36 6 2 11 22 56 65 85 94 103 97 84 73
174 175 173 176 169 165 157 129 110 86 68 60 50 78 129 137 136 143 146 137 141 142 145 151 147 140 149 32 133 142 139 199 303 336 349 21 46 78 79 110 114 111 98
188 174 161 169 172 173 158 152 153 155 169 190 182 194 185 128 130 139 145 143 147 146 149 164 151 149 148 164 207 123 152 155 155 302 337 351 11 68 91 109 115 129 126
176 159 159 161 171 177 166 165 164 165 183 181 162 169 169 149 139 148 147 147 153 155 164 167 154 157 163 168 173 151 105 92 114 143 227 320 353 338 277 141 135 137 145
131 131 144 142 162 172 170 170 165 168 167 158 169 178 189 179 191 173 151 154 163 165 173 175 170 166 177 173 170 161 154 150 163 149 169 209 272 305 326 359 142 147 148
Height
1526 1526 1525 1524 1523 1521 1519 1517 1518 1518 1519 1518 1518 1518 1517 1517 1517 1516 1516 1516 1515 1515 1515 1515 1514 1514 1514 1514 1513 1513 1513 1513 1513 1513 1513 1513 1513 1513 1513 1513 1513 1513 1513
1526 1526 1525 1524 1522 1520 1516 1514 1515 1517 1518 1519 1518 1518 1518 1517 1517 1517 1517 1516 1516 1516 1516 1515 1515 1515 1515 1515 1514 1514 1514 1514 1514 1514 1514 1514 1514 1514 1513 1513 1513 1513 1513
1526 1526 1525 1524 1523 1520 1516 1514 1515 1517 1518 1519 1519 1518 1518 1518 1518 1518 1517 1517 1517 1517 1516 1516 1516 1516 1516 1516 1516 1515 1515 1515 1514 1514 1514 1514 1514 1514 1514 1514 1513 1513 1513
1527 1526 1526 1525 1523 1522 1519 1518 1517 1518 1519 1519 1519 1518 1518 1518 1518 1518 1518 1518 1518 1518 1518 1518 1518 1517 1517 1517 1517 1516 1516 1516 1515 1515 1515 1515 1515 1515 1514 1514 1514 1513 1513
1527 1527 1526 1526 1525 1523 1522 1521 1520 1520 1520 1520 1518 1516 1516 1518 1519 1519 1519 1519 1519 1519 1519 1519 1519 1519 1518 1518 1518 1517 1517 1517 1517 1516 1516 1516 1515 1515 1515 1514 1514 1513 1512
1528 1528 1527 1527 1526 1525 1525 1524 1523 1522 1522 1520 1517 1514 1514 1517 1519 1520 1520 1521 1521 1520 1520 1520 1520 1520 1520 1519 1519 1519 1519 1518 1518 1518 1517 1517 1516 1516 1516 1515 1514 1513 1512
1528 1528 1528 1528 1527 1527 1526 1526 1525 1524 1523 1522 1519 1516 1516 1518 1521 1521 1522 1522 1522 1522 1521 1521 1521 1521 1521 1521 1521 1520 1520 1520 1519 1519 1519 1518 1518 1517 1517 1516 1515 1514 1513
1529 1529 1529 1529 1528 1528 1528 1527 1527 1526 1525 1524 1522 1521 1521 1522 1523 1523 1523 1524 1524 1523 1523 1523 1523 1523 1523 1523 1522 1522 1521 1521 1521 1520 1520 1519 1519 1518 1518 1517 1516 1515 1514
1530 1530 1530 1530 1529 1529 1529 1529 1528 1528 1527 1527 1526 1525 1524 1525 1525 1525 1525 1525 1525 1525 1525 1525 1525 1525 1525 1524 1524 1523 1523 1523 1522 1522 1521 1521 1520 1520 1519 1518 1517 1517 1516
1531 1531 1531 1531 1531 1531 1530 1530 1530 1529 1529 1528 1528 1527 1527 1527 1527 1527 1528 1528 1527 1527 1527 1527 1527 1526 1526 1526 1526 1525 1525 1525 1524 1524 1523 1523 1522 1521 1521 1520 1519 1518 1518
1531 1532 1532 1532 1532 1532 1531 1531 1531 1531 1530 1530 1530 1529 1529 1529 1529 1529 1529 1529 1529 1529 1529 1529 1528 1528 1528 1528 1528 1528 1527 1526 1526 1526 1525 1525 1524 1524 1523 1522 1521 1521 1520
1531 1532 1532 1532 1532 1532 1532 1532 1532 1532 1532 1532 1531 1531 1531 1531 1531 1531 1531 1531 1531 1531 1531 1530 1530 1530 1530 1530 1529 1529 1529 1528 1528 1527 1527 1527 1526 1525 1525 1524 1523 1523 1522
1531 1532 1532 1533 1533 1533 1533 1533 1533 1533 1533 1533 1533 1533 1533 1533 1533 1533 1533 1533 1533 1533 1532 1532 1532 1532 1531 1531 1531 1531 1531 1530 1530 1529 1529 1529 1528 1527 1527 1526 1526 1525 1524
1531 1532 1532 1533 1533 1533 1533 1533 1533 1534 1534 1534 1534 1534 1534 1534 1534 1534 1534 1534 1534 1534 1534 1534 1533 1533 1533 1533 1533 1532 1532 1532 1531 1531 1531 1530 1530 1529 1528 1528 1527 1527 1526
1530 1531 1532 1532 1533 1534 1534 1534 1534 1534 1534 1534 1535 1535 1535 1535 1535 1535 1535 1536 1536 1535 1535 1535 1535 1535 1535 1535 1534 1534 1534 1534 1533 1533 1532 1532 1531 1531 1530 1530 1529 1529 1528
1530 1531 1531 1532 1533 1533 1534 1534 1534 1534 1535 1535 1535 1535 1536 1536 1536 1536 1536 1537 1537 1537 1537 1536 1536 1536 1536 1536 1536 1536 1536 1535 1535 1535 1534 1534 1533 1532 1532 1531 1531 1531 1530
1529 1530 1531 1532 1533 1533 1533 1534 1534 1535 1535 1535 1536 1536 1536 1537 1537 1537 1537 1537 1538 1538 1538 1538 1538 1538 1537 1538 1537 1537 1537 1537 1537 1536 1536 1535 1535 1534 1533 1533 1533 1532 1532
1529 1530 1531 1532 1532 1533 1533 1534 1534 1535 1535 1535 1536 1536 1537 1537 1537 1537 1538 1538 1538 1538 1538 1538 1539 1539 1539 1539 1539 1539 1539 1538 1538 1538 1537 1537 1536 1536 1535 1535 1534 1534 1534
1528 1529 1530 1531 1532 1532 1533 1533 1534 1534 1535 1535 1536 1536 1537 1537 1537 1538 1538 1538 1539 1539 1539 1539 1539 1539 1539 1539 1539 1540 1540 1539 1539 1539 1538 1538 1537 1537 1537 1536 1536 1535 1535
1527 1528 1529 1530 1531 1531 1532 1533 1534 1534 1535 1535 1536 1536 1537 1537 1537 1538 1538 1538 1539 1539 1539 1539 1539 1540 1540 1540 1540 1540 1540 1540 1540 1540 1539 1539 1539 1538 1538 1538 1537 1537 1536
1526 1527 1528 1529 1529 1530 1531 1531 1532 1533 1534 1534 1535 1536 1536 1537 1537 1537 1537 1538 1538 1539 1539 1539 1539 1539 1540 1540 1540 1540 1541 1541 1541 1540 1540 1540 1540 1539 1539 1538 1538 1537 1537
1525 1526 1527 1527 1528 1529 1529 1530 1530 1531 1532 1533 1534 1535 1535 1536 1536 1537 1537 1537 1538 1538 1538 1539 1539 1539 1539 1539 1540 1539 1540 1542 1541 1541 1541 1540 1540 1540 1539 1539 1539 1538 1538
1525 1526 1526 1527 1527 1528 1528 1529 1529 1530 1531 1532 1533 1534 1534 1535 1536 1536 1536 1537 1537 1537 1538 1538 1538 1538 1538 1539 1539 1540 1540 1540 1540 1541 1540 1540 1540 1540 1540 1539 1539 1538 1538
1524 1525 1525 1526 1527 1527 1527 1527 1527 1528 1529 1530 1531 1533 1534 1534 1535 1535 1536 1536 1536 1537 1537 1537 1537 1538 1537 1537 1538 1538 1539 1539 1539 1540 1540 1540 1540 1540 1539 1539 1539 1538 1538
1523 1524 1524 1525 1526 1526 1526 1526 1526 1527 1528 1529 1530 1531 1532 1533 1534 1534 1534 1535 1535 1536 1536 1536 1536 1536 1536 1537 1537 1537 1537 1538 1538 1538 1539 1539 1539 1539 1539 1539 1538 1538 1537
1522 1523 1523 1524 1524 1524 1524 1525 1525 1526 1526 1528 1529 1530 1531 1532 1532 1533 1533 1534 1534 1534 1534 1535 1535 1535 1535 1536 1536 1536 1536 1536 1537 1537 1537 1537 1538 1538 1538 1538 1538 1537 1537